sat.trackr.live / text

‹ back to catalog

STARLINK-34463

NORAD 64598 · 2025-137E

PAYLOAD ACTIVE UNKNOWN

§ Identity

Operator
Country
US
Launch date
2025-06-25
Launch site
AFETR
Launch vehicle
Mass (kg)
RCS (m²)

Purposes: comms

External: N2YO · Heavens-Above · Gunter

§ Orbital elements

Epoch: 2026-05-24T19:15:59.758272Z

Period
94.10 min
Inclination
53.1631°
Eccentricity
0.0001382
Mean motion
15.30209688 rev/d
Perigee alt
474.2 km
Apogee alt
476.1 km
Semi-major
6,853.3 km
B*
4.5439e-4
RAAN
342.0154°
Arg perigee
87.3890°
Mean anomaly
272.7269°
Rev number
5,238

§ Raw data

STARLINK-344631 64598U 25137E   26144.80277498  .00013126  00000+0  45439-3 0  99922 64598  53.1631 342.0154 0001382  87.3890 272.7269 15.30209688 52386

JSON: /api/v1/satellites/64598 · /tle

For live sub-satellite position, see the globe view (requires WebGL).

§ Visibility from observer

Set your observer location to see the next 7 days of passes ≥ 10°. The values pass through the URL so the page stays shareable.

No JS? Fill the form by hand. The geolocation button needs JavaScript.